Погода в Сепанге

Малайзия     2°40′03″N   101°41′36″E
темп.,
°C
ветер,
м/с
пор.,
м/с
влажн.,
%
обл.,
%
осадки,
мм/ч
давл.,
гПа
погр.,
м
13 апреля, вт
вт1323:00+25в228674 0.3 101229
02:00+25всв118763 0.4 101117
05:00+24св118930 0.1 101013
08:00+25в128785 0.4 101280
11:00+29ююв2372100 2.4 1012686
14:00+31ю226523 6.6 10101156
17:00+30ю227290 1.4 1008754
20:00+26ююв118599 2.8 101016
14 апреля, ср
ср1423:00+25в2288100 0.8 101221
02:00+25ссв118899 0.8 101114
05:00+25всв118893 0.5 101015
08:00+25в118754 0.7 101255
11:00+29ююв237483 2.2 1013549
14:00+30ююз226697 5.5 10101084
17:00+28ююз1179100 2.1 1008147
20:00+26ююз0088100 2.7 101015
15 апреля, чт
чт1523:00+25с1191100 2.5 101222
02:00+25с129172 2.5 101034
05:00+24с119485 0.4 101026
08:00+25ссз129192 0.6 101173
11:00+30зсз126579 0.1 1012926
14:00+31зюз126179 2.0 10101082
17:00+26юз2387100 4.9 100892
20:00+25зюз0189100 5.0 101017
16 апреля, пт
пт1623:00+24ссв1190100 0.0 101214
02:00+24ссв019064 0.0 101013
05:00+23всв119160 0.0 101013
08:00+24в118929 0.0 101144
11:00+30ююз116631 0.0 1012901
14:00+30ю217032 2.0 1010821
17:00+29юз227793 5.4 1008217
20:00+24всв3496100 9.6 101099
17 апреля, сб
сб1723:00+24всв2293100 3.2 101342
02:00+24св0090100 3.2 101213
05:00+23вюв119167 0.1 101113
08:00+24ююв239092 0.6 1013104
11:00+28ююз337392 0.1 10141000
14:00+28юз337697 2.5 1012827
17:00+28зсз3379100 2.1 1011732
20:00+25зсз1191100 2.2 101137